Regional Weather Roundup
Issued by NWS

Home | Current Version | Previous Version | Text Only | Print | Product List | Glossary Off
Versions: 1 2 3 4 5 6 7 8 9 10 11 12 13 14 15 16 17 18 19 20 21 22 23 24 25 26 27 28 29 30 31 32 33 34 35 36 37 38 39 40 41 42 43 44 45 46 47 48 49 50

714
ASUS45 KBOU 161710
RWRCO

WEATHER ROUNDUP FOR COLORADO
NATIONAL WEATHER SERVICE DENVER/BOULDER CO
1000 AM MST TUE JAN 16 2018

NOTE: "FAIR" INDICATES FEW OR NO CLOUDS BELOW 12000 FEET WITH NO
SIGNIFICANT WEATHER AND/OR OBSTRUCTIONS TO VISIBILITY.

COZ001>005-013-030-031-161800-
...NORTHWEST COLORADO...

CITY           SKY/WX    TMP DP  RH WIND       PRES   REMARKS
CRAIG          FAIR       7   0  73 SW3       30.46S
HAYDEN         FAIR      10  -2  58 E8        30.45R WCI  -2
MEEKER         FAIR      15   5  64 CALM      30.44S
RABBIT EARS PA FAIR      19  -4  35 N3        30.33R
STEAMBOAT SPGS FAIR       2  -3  82 CALM      30.43S
WALDEN         FAIR       3  -8  60 CALM      30.41S
$$

COZ006>008-011-161800-
...WEST CENTRAL VALLEYS...

CITY           SKY/WX    TMP DP  RH WIND       PRES   REMARKS
GRAND JUNCTION FAIR      30  14  51 S9        30.45R WCI  22
MONTROSE       FAIR      26  16  65 SE3       30.46S
EAGLE          FAIR      14   3  61 CALM      30.52S
RIFLE          FAIR      24  13  62 CALM      30.47R
DELTA          FAIR      27  16  63 CALM      30.47S
NUCLA          FAIR      30  16  55 CALM      30.44R
$$

COZ017>023-064>068-161800-
...SOUTHWEST COLORADO...

CITY           SKY/WX    TMP DP  RH WIND       PRES   REMARKS
DURANGO        FAIR      29  21  72 SE6       30.40R WCI  23
CORTEZ         FAIR      32  19  58 CALM      30.41R
PAGOSA SPRINGS FAIR      27  17  67 CALM      30.38S
TELLURIDE      FAIR      25  -6  25 CALM      30.36S
WOLF CREEK PAS FAIR      21 -27  10 CALM      30.40R
$$

COZ009-010-012-014-032>034-037-058>063-161800-
...CENTRAL COLORADO...

CITY           SKY/WX    TMP DP  RH WIND       PRES   REMARKS
ASPEN          FAIR      16   5  62 NW6       30.38R WCI   7
BUENA VISTA    FAIR      18   5  57 NW3       30.40S
COPPER MTN     NOT AVBL
BERTHOUD PASS  FAIR      10  -2  56 NW15      30.29R WCI  -6
COTTONWOOD PAS NOT AVBL
GUNNISON       CLOUDY    14   5  67 N6        30.45R WCI   5
KREMMLING      NOT AVBL
LEADVILLE      FAIR      14 -15  26 CALM      30.33R
MONARCH PASS   FAIR      16 -18  20 W15       30.43R WCI   1
SALIDA         FAIR      20   8  59 CALM      30.48S
SUNLIGHT       FAIR      21 -22  14 CALM      30.39R
WILKERSON PASS FAIR      21 -44   4 W3        30.34R
$$

COZ069>075-161800-
...SAN LUIS VALLEY/SANGRE DE CRISTO MOUNTAINS...

CITY           SKY/WX    TMP DP  RH WIND       PRES   REMARKS
ALAMOSA        CLOUDY    20  14  77 N5        30.43R WCI  13
DEL NORTE      CLOUDY    18  10  69 CALM      30.43S
LA VETA PASS   CLOUDY    16  12  86 SW18        N/A  FOG     WCI  -1
SAGUACHE       FLURRIES  19  14  79 CALM      30.44R
$$

COZ035-036-038>040-161800-
...NORTHERN COLORADO FRONT RANGE...

CITY           SKY/WX    TMP DP  RH WIND       PRES   REMARKS
DENVER INTL AP FAIR      19   7  59 SW5       30.43S WCI  12
DMNS CITY PARK NOT AVBL
AURORA         MOSUNNY   22  11  62 S6        30.43R WCI  15
FRONT RANGE AP MOSUNNY   21  12  68 SE5       30.44R WCI  15
ERIE MUNI ARPT FAIR      12   6  75 CALM      30.52R
BOULDER MUN AP FAIR      14   3  62 CALM      30.45R
CENTENNIAL     FAIR      22  15  75 SE5       30.41S WCI  16
BROOMFIELD     MOSUNNY   18  10  73 CALM      30.42S
FORT COLLINS   FAIR       6   1  80 CALM      30.47S
LONGMONT       FAIR      16   4  58 CALM      30.48S
$$

COZ041-046-047-076>085-087-088-161800-
...PIKES PEAK/PALMER DIVIDE AND SOUTHERN FOOTHILLS...

CITY           SKY/WX    TMP DP  RH WIND       PRES   REMARKS
COLO. SPRINGS  FAIR      18   9  68 CALM      30.44R
A. F. ACADEMY  FAIR      21   8  56 CALM      30.40S
SCHRIEVER AFB  FAIR      19  11  70 CALM      30.44S
CHEYENNE MTN   FAIR      22  15  73 SE6       30.34R WCI  14
ELLICOTT         N/A    N/A N/A N/A NW3       30.42
FALCON         FAIR      22   7  51 SW5       30.41R WCI  16
FORT CARSON    FAIR      14   7  73 CALM      30.44S
LIMON          FAIR      16   3  56 CALM      30.47S
MONUMENT HILL  FAIR      21   9  58 SW3       30.40S
CANON CITY     FAIR      16   9  73 CALM      30.48S
WALSENBURG     FAIR      21  18  86 CALM      30.45S
TRINIDAD       FAIR      19  14  81 W5        30.48S WCI  12
$$

COZ042>045-048>051-090-091-161800-
...NORTHEAST COLORADO...

CITY           SKY/WX    TMP DP  RH WIND       PRES   REMARKS
GREELEY ARPT   FAIR      11   2  67 CALM      30.51S
AKRON          FAIR      10   0  63 W9        30.49S WCI  -3
BURLINGTON     FAIR      13   2  61 VRB5      30.56S WCI   5
WRAY           FAIR      10   3  72 MISG      30.60F
YUMA           FAIR      12   1  62 CALM      30.54F
STERLING       FAIR       9   1  72 S8        30.54S WCI  -4
HOLYOKE        FAIR      14   5  67 CALM      30.59R
FORT MORGAN    FAIR       9  -1  63 SW6       30.52S WCI  -1
$$

COZ086-089-092>099-161800-
...SOUTHEAST COLORADO...

CITY           SKY/WX    TMP DP  RH WIND       PRES   REMARKS
PUEBLO         FAIR      16   2  54 CALM      30.54S
LA JUNTA       FAIR      15   3  59 S5        30.59R WCI   8
LAMAR          FAIR      15  -1  49 SW3       30.62S
SPRINGFIELD      N/A     17   1  49 VRB5      30.57S WCI  10
$$




USA.gov is the U.S. government's official web portal to all federal, state and local government web resources and services.